SCP
1 1 1 1 1 1 1 1 1 1 1 1 1 0 0 0 0 0 0 0 0 0 0 0 0 0 0 0 0 0 0 0 0 0 0 0 0 0 0 0 0 0 0
1 1 1 1 1 1 1 1 1 1 1 1 1 0 0 0 0 0 0 0 0 0 0 0 0 0 0 0 0 0 0 0 0 0 0 0 0 0 0 0 0 0 0
1 1 1 1 1 1 1 1 1 1 1 1 1 0 0 0 0 0 0 0 0 0 0 0 0 0 0 0 0 0 0 0 0 0 0 0 0 0 0 0 0 0 0
1 1 1 1 1 1 1 1 1 1 1 1 0 0 0 0 0 0 0 0 0 0 0 0 0 0 0 0 0 0 0 0 0 0 0 0 0 0 0 0 0 0 0
1 1 1 1 1 1 0 0 0 0 0 0 0 0 0 0 0 0 0 0 0 0 0 0 0 0 0 0 0 0 0 0 0 0 0 0 0 0 0 0 0 0 0
1 1 1 1 1 0 0 0 0 0 0 0 0 0 0 0 0 0 0 0 0 0 0 0 0 0 0 0 0 0 0 0 0 0 0 0 0 0 0 0 0 0 0
0 1 1 1 1 0 0 0 0 0 0 0 0 0 0 0 0 0 0 0 0 0 0 0 0 0 0 0 0 0 0 0 0 0 0 0 0 0 0 0 0 0 0
0 0 0 0 0 0 0 0 0 0 0 0 0 0 0 0 0 0 0 0 0 0 0 0 0 0 0 0 0 0 0 0 0 0 0 0 0 0 0 0 0 0 0
0 0 0 0 0 0 0 0 0 0 0 0 0 0 0 0 0 0 0 0 0 0 0 0 0 0 0 0 0 0 0 0 0 0 0 0 0 0 0 0 0 0 0
0 0 0 0 0 0 0 0 0 0 0 0 0 0 0 0 0 0 0 0 0 0 0 0 0 0 0 0 0 0 0 0 0 0 0 0 0 0 0 0 0 0 0
0 0 0 0 0 0 0 0 0 0 0 0 0 0 0 0 0 0 0 0 0 0 0 0 0 0 0 0 0 0 0 0 0 0 0 0 0 0 0 0 0 0 0
0 0 0 0 0 0 0 0 0 0 0 0 0 0 0 0 0 0 0 0 0 0 0 0 0 0 0 0 0 0 0 0 0 0 0 0 0 0 0 0 0 0 0
0 0 0 0 0 0 0 0 0 0 0 0 0 0 0 0 0 0 0 0 0 0 0 0 0 0 0 0 0 0 0 0 0 0 0 0 0 0 0 0 0 0 0
1 0 0 0 0 0 0 0 0 0 0 0 0 0 0 0 0 0 0 0 0 0 0 0 0 0 0 0 0 0 0 0 0 0 0 0 0 0 0 0 0 0 0
1 1 1 0 0 0 0 0 0 0 0 0 0 0 0 0 0 0 0 0 0 0 0 0 0 0 0 0 0 0 0 0 0 0 0 0 0 0 0 0 0 0 0
1 1 1 1 0 0 0 0 0 0 0 0 0 0 0 0 0 0 0 0 0 0 0 0 0 0 0 0 0 0 0 0 0 0 0 0 0 0 0 0 0 0 0
1 1 1 0 0 0 0 0 0 0 0 0 0 0 0 0 0 0 0 0 0 0 0 0 0 0 0 0 0 0 0 0 0 0 0 0 0 0 0 0 0 0 0
1 1 1 0 0 0 0 0 0 0 0 0 0 0 0 0 0 0 0 0 1 1 1 0 0 0 0 0 0 0 0 0 0 0 0 0 0 0 0 0 0 0 0
1 1 1 1 0 0 0 0 0 0 0 0 0 0 0 0 0 0 0 1 1 1 1 1 0 0 0 0 0 0 0 0 0 0 0 0 0 0 0 0 0 0 0
1 1 1 1 1 1 0 0 0 0 0 0 0 0 1 1 1 1 1 1 1 1 1 1 0 0 0 0 0 0 0 0 0 0 0 0 0 0 0 0 0 0 0
1 1 1 1 1 1 1 1 0 0 0 0 1 1 1 1 1 1 1 1 1 1 1 0 0 0 0 0 0 0 0 0 0 0 0 0 0 0 0 0 0 0 0
0 0 1 1 1 1 1 1 0 0 1 1 1 1 1 1 1 1 1 1 1 1 0 0 0 0 0 0 0 0 0 0 0 0 0 0 0 0 0 0 0 0 0
0 0 0 0 0 0 0 0 0 0 1 1 1 1 1 1 1 1 0 0 0 0 0 0 0 0 0 0 0 0 0 0 0 0 0 0 0 0 0 0 0 0 0
0 0 0 0 0 0 0 0 0 0 1 1 1 1 1 1 0 0 0 0 0 0 0 0 0 0 0 0 0 0 0 0 0 0 0 0 0 0 0 0 0 0 0
0 0 0 0 0 0 0 0 0 0 0 0 0 0 0 0 0 0 0 0 0 0 0 0 0 0 0 0 0 0 0 0 0 0 0 0 0 0 0 0 0 0 0
0 0 0 0 0 0 0 0 0 0 0 0 0 0 0 0 0 0 0 0 0 0 0 0 0 0 0 0 0 0 0 0 0 0 0 0 0 0 0 0 0 0 0
Wind_Speed
10 11 11 11 11 12 13 13 13 13 11 8 9 8 8 7 6 6 7 8 8 7 6 5 5 5 4 4 5 4 6 4 3 3 3 3 4 3 3 3 2 3 3
10 11 11 11 11 12 13 13 13 13 12 9 8 6 6 7 6 6 7 8 8 8 7 6 6 6 4 5 5 4 4 4 4 3 3 3 4 5 4 4 4 4 4
11 11 11 11 11 11 12 11 11 12 12 11 8 7 5 5 6 7 7 8 8 8 7 7 6 5 6 5 5 5 6 4 4 4 3 2 2 3 4 4 4 3 3
10 11 11 11 11 10 10 10 10 11 11 11 10 12 9 9 8 7 7 8 9 9 9 8 7 6 6 5 7 6 5 5 5 4 3 3 3 2 3 5 5 5 5
9 10 11 11 10 10 10 10 10 11 11 12 12 11 10 8 7 7 8 9 8 9 9 8 7 7 6 6 5 5 6 5 5 4 4 4 3 5 3 2 3 5 5
8 9 9 10 9 9 9 10 10 11 11 12 12 12 12 10 10 10 9 9 7 7 9 8 7 7 6 6 6 6 7 5 5 4 4 4 4 4 3 3 3 3 3
9 9 10 10 10 10 10 9 10 10 10 11 11 12 12 12 12 11 10 9 7 7 9 8 7 7 6 6 6 6 5 6 6 6 5 5 4 4 4 4 3 2 3
9 9 9 9 9 10 9 9 10 9 10 10 10 10 11 9 8 10 8 8 7 7 8 8 8 8 8 7 6 6 6 5 6 7 5 4 5 4 4 4 4 4 4
9 9 9 9 9 9 9 9 9 9 10 10 10 9 9 9 8 8 8 7 6 6 8 9 8 8 8 7 6 5 5 5 6 6 7 7 5 5 5 4 5 5 5
9 8 8 8 7 8 8 8 9 8 8 9 9 8 8 8 8 7 8 7 7 7 8 9 9 8 8 7 7 6 6 6 6 5 5 6 5 4 5 5 5 5 6
9 8 7 7 7 7 7 8 8 8 7 8 8 8 8 8 8 7 8 8 8 8 8 8 8 9 8 7 7 7 7 8 7 6 6 7 6 5 5 5 5 5 5
8 8 8 7 7 7 7 7 8 8 8 8 8 8 8 8 8 8 8 8 8 8 8 8 8 8 8 8 8 8 7 8 8 7 7 7 5 6 6 5 6 5 5
8 8 8 7 6 6 6 6 7 7 8 8 8 8 7 7 7 7 8 8 7 7 7 8 8 8 7 7 7 7 7 7 7 7 7 7 7 7 6 6 6 5 6
8 7 7 6 6 5 5 5 5 6 6 7 8 8 8 7 7 7 7 7 7 7 7 7 7 7 7 7 7 7 7 6 6 6 6 6 6 7 6 6 6 6 5
8 7 6 6 6 5 5 5 5 6 6 7 7 7 7 7 6 6 6 6 6 6 6 6 6 6 6 5 6 7 6 6 5 4 4 4 2 2 2 4 4 5 5
7 7 6 6 6 6 5 5 5 6 6 6 7 6 6 7 6 6 6 5 6 6 6 6 6 5 4 3 4 5 5 5 4 4 3 3 3 2 2 2 4 4 4
6 6 5 5 4 4 5 5 5 6 6 6 6 6 6 6 6 6 6 5 5 5 6 5 5 5 4 5 5 5 3 4 3 3 3 2 2 3 3 3 2 1 3
6 5 4 4 4 4 4 4 5 5 6 5 5 5 6 6 6 6 5 5 4 4 4 5 5 4 3 5 5 5 4 3 2 2 1 1 1 1 1 2 2 2 2
5 4 3 4 4 3 4 4 5 5 5 5 5 6 6 6 6 6 5 5 5 4 4 3 4 4 4 4 4 4 4 4 4 4 3 2 2 4 2 1 2 2 2
5 4 4 5 4 3 3 4 5 5 5 5 4 4 5 5 6 6 5 5 5 5 5 5 5 5 5 6 5 3 3 4 4 5 6 9 6 6 4 1 2 2 1
6 5 5 5 4 3 3 4 4 3 3 4 4 4 5 5 6 6 5 5 6 7 7 8 7 7 7 7 7 4 2 4 4 4 5 6 10 10 9 6 5 3 2
6 5 5 5 4 4 4 4 4 3 3 4 5 5 5 5 6 7 6 6 6 8 8 8 7 6 6 8 8 9 7 5 6 5 6 7 10 11 10 7 6 4 2
5 5 6 6 5 5 4 5 4 4 5 6 6 6 7 7 7 7 7 6 5 6 6 6 6 6 6 8 12 12 12 11 8 8 11 9 7 8 8 8 5 4 3
6 5 6 6 6 6 6 6 5 6 7 8 8 8 9 9 8 6 5 5 5 6 6 7 7 7 6 5 5 7 9 11 11 9 10 9 8 7 6 5 4 6 6
6 6 6 6 6 6 6 6 6 8 9 9 9 9 9 10 10 11 10 9 9 7 7 7 7 7 7 6 8 6 6 6 6 6 5 5 5 5 6 6 6 6 5
6 6 7 7 7 8 7 7 6 8 10 10 9 8 9 9 10 11 13 20 17 20 19 15 11 11 11 11 13 13 11 8 4 4 6 6 6 6 5 5 5 6 6
Wind_Direction
173 170 172 175 176 178 181 184 185 180 178 181 184 184 186 187 190 194 189 193 194 188 203 205 178 206 191 194 187 192 181 198 185 190 183 181 188 177 175 194 196 183 187
166 168 171 173 178 180 184 185 185 181 183 184 185 187 185 191 190 192 187 196 194 193 197 210 198 198 190 193 196 209 215 191 190 222 215 198 180 197 191 188 198 202 192
173 171 173 176 180 184 187 188 185 184 186 183 179 177 179 190 189 192 190 196 198 198 203 197 210 198 207 190 200 203 217 211 200 226 243 243 210 172 171 197 202 207 215
175 172 174 177 181 185 183 185 189 185 183 184 188 187 192 194 195 192 187 192 198 201 199 198 200 208 216 191 207 202 217 223 212 195 241 289 347 280 174 187 183 196 215
174 172 174 173 175 180 180 181 185 186 184 187 190 194 200 198 193 194 190 196 194 202 202 198 198 202 215 209 219 193 225 222 233 218 205 210 219 251 266 198 184 191 197
164 165 164 164 168 172 177 179 182 188 186 187 191 199 202 199 194 194 192 196 191 196 198 199 199 204 210 204 210 210 211 231 236 247 235 223 225 235 239 233 219 208 186
160 161 161 164 168 173 177 178 181 185 187 191 195 200 203 201 199 196 196 198 192 192 191 198 199 203 203 206 207 208 220 216 220 231 238 241 242 249 254 258 248 232 205
157 161 162 166 170 173 175 176 181 184 187 192 196 199 202 202 198 199 197 195 197 197 186 195 198 202 202 203 203 213 209 214 221 229 237 244 240 242 248 258 263 249 231
155 157 161 168 172 173 174 174 175 179 184 188 188 192 198 199 195 193 199 196 197 194 188 193 195 195 196 198 200 216 215 215 223 222 216 233 228 235 243 249 259 270 267
152 152 159 163 166 169 170 173 172 176 183 185 186 185 190 192 191 190 194 196 196 197 192 193 193 194 194 198 208 213 212 220 224 234 235 237 235 230 236 242 247 258 271
152 150 152 152 155 160 162 170 170 172 176 181 185 183 184 185 187 189 194 195 195 195 197 198 195 196 198 199 207 221 209 216 219 223 225 228 246 242 237 233 239 241 249
147 145 146 146 152 159 161 166 172 174 176 178 181 181 183 182 183 187 193 193 193 197 199 200 200 203 203 202 207 216 213 215 217 220 226 232 228 229 250 245 242 242 248
147 146 146 149 150 154 158 164 171 173 173 172 177 179 184 184 186 189 193 193 194 199 200 201 202 205 205 204 207 210 215 218 221 222 223 231 235 232 234 238 243 241 235
151 151 149 150 149 152 156 164 167 169 173 173 175 179 186 188 189 189 191 191 193 195 198 199 202 206 207 207 207 206 209 216 223 226 226 230 235 236 239 238 245 251 252
153 154 153 149 155 155 160 171 169 170 175 178 181 183 184 185 186 186 188 186 189 192 193 196 201 204 205 206 206 205 202 206 213 220 225 226 229 299 282 273 260 251 249
150 148 150 153 160 165 170 172 174 172 174 182 186 183 183 183 184 184 181 180 184 187 185 190 191 192 198 169 184 206 199 197 206 210 210 199 169 140 124 44 16 347 287
137 141 143 151 158 168 173 177 175 170 174 184 188 183 182 179 179 178 175 180 183 183 180 182 183 183 171 148 161 180 193 187 191 201 207 221 169 170 184 161 162 56 7
124 119 123 136 147 157 168 174 172 173 172 178 180 176 179 177 174 174 173 171 168 164 163 167 169 166 141 140 158 163 174 165 150 153 183 178 131 137 195 176 143 114 68
108 104 108 118 128 140 155 162 163 163 165 172 176 176 175 172 168 166 161 155 151 145 146 142 138 136 110 105 137 161 153 130 110 91 69 71 91 53 59 133 131 120 112
98 98 101 104 106 118 139 151 151 155 162 165 168 167 163 162 159 152 142 137 131 124 114 99 90 90 85 81 91 127 135 123 113 94 79 61 58 53 44 106 116 110 77
93 92 92 91 90 94 118 130 132 139 145 145 143 140 138 138 136 130 126 127 123 116 108 100 89 81 73 77 73 79 105 111 108 97 83 68 64 62 54 53 60 42 349
95 95 91 82 74 80 97 109 109 108 118 125 126 128 127 126 123 118 115 117 120 116 109 102 94 83 74 68 73 75 72 77 96 90 87 85 81 75 66 63 49 24 345
90 92 90 79 67 66 81 90 88 97 107 109 107 107 102 99 103 109 114 116 117 115 113 109 102 90 82 82 83 85 80 77 85 86 90 90 91 98 85 67 42 28 42
89 91 91 83 69 64 73 82 91 99 103 102 99 97 97 92 86 86 88 95 105 113 112 108 104 97 86 78 90 101 102 103 102 102 104 101 86 84 86 86 65 58 48
83 86 87 84 77 73 72 76 91 103 101 98 96 94 88 87 79 69 54 61 55 63 86 95 98 98 91 66 62 78 86 89 94 107 106 95 90 77 69 65 57 50 51
93 89 88 86 83 80 76 76 89 105 108 103 97 94 95 94 95 94 79 59 64 62 61 61 77 80 83 87 80 78 77 78 81 95 92 82 72 66 61 59 58 51 41